User: anonymous   Login
Location: Boiro
(42.6475°N, 8.8834°W)
Time: 05:37:25
(UTC+01:00)
Language:

XW-2D - Orbit

View from above orbital plane
View from above orbital plane
View from above satellite
View from above satellite

Ground track
Ground track

The orbit data is extracted from the following two-line orbital elements,

1 40907U 15049J   22024.92017778  .00003112  00000-0  15626-3 0  9990
2 40907  97.4908  29.5578 0014960 129.2502 292.6553 15.17948470351182
Epoch (UTC): 24 January 2022 22:05:03
Eccentricity: 0.0014960
inclination: 97.4908°
perigee height: 502 km
apogee height: 522 km
right ascension of ascending node: 29.5578°
argument of perigee: 129.2502°
revolutions per day: 15.17948470
mean anomaly at epoch: 292.6553°
orbit number at epoch: 35118

The dashed part of the orbit path shows where the satellite is in the earth's shadow,  

DLR